Regional Weather Roundup
Issued by NWS Sioux Falls, SD

Home | Current Version | Previous Version | Text Only | Print | Product List | Glossary On
Versions: 1 2 3 4 5 6 7 8 9 10 11 12 13 14 15 16 17 18 19 20 21 22 23 24 25 26 27 28 29 30 31 32 33 34 35 36 37 38 39 40 41 42 43 44 45 46 47 48 49 50
000
ASUS43 KFSD 160110
RWRFSD

WEATHER ROUNDUP FOR SE SOUTH DAKOTA/SW MINNESOTA/NW IOWA
NATIONAL WEATHER SERVICE SIOUX FALLS SD
700 PM CST SUN JAN 15 2017

NOTE: "FAIR" INDICATES FEW OR NO CLOUDS BELOW 12,000 FEET WITH NO
SIGNIFICANT WEATHER AND OR OBSTRUCTIONS TO VISIBILITY.


SDZ038>040-050-052>070-160200-
SOUTHEAST SOUTH DAKOTA

CITY           SKY/WX    TMP DP  RH WIND       PRES   REMARKS
BROOKINGS      CLOUDY    24  20  84 SE7       30.13S WCI  16
CHAMBERLAIN    CLOUDY    22  17  82 CALM      30.10S
HURON          CLOUDY    17  15  92 NE3       30.13S
MADISON          N/A     25  25 100 S5          N/A  WCI  19
MITCHELL       CLOUDY    27  23  85 SE3       30.13S
SIOUX FALLS    CLOUDY    29  19  66 S10       30.16S WCI  20
WINNER         FAIR      27  21  78 NE5       30.07S WCI  22
YANKTON        CLOUDY    30  18  59 SE6       30.14F WCI  24
$$

MNZ071-072-080-081-089-090-097-098-160200-
SOUTHWEST MINNESOTA

CITY           SKY/WX    TMP DP  RH WIND       PRES   REMARKS
FAIRMONT       CLOUDY    24  20  84 S6        30.22R WCI  17
JACKSON        CLOUDY    27  19  74 SE3       30.19S
LUVERNE        CLOUDY    21  16  79 S3        30.17S
MARSHALL       CLOUDY    25  20  81 SE7       30.17S WCI  17
MONTEVIDEO     CLOUDY    25  18  74 SW6       30.18S WCI  18
PIPESTONE      CLOUDY    25  18  74 S6        30.14F WCI  18
REDWOOD FALLS  CLOUDY    23  17  78 S6        30.18F WCI  16
TRACY          CLOUDY    26  22  85 S5        30.16F WCI  20
WINDOM         CLOUDY    27  19  74 S5        30.18S WCI  21
WORTHINGTON    CLOUDY    27  20  75 S7        30.17S WCI  19
$$

IAZ001>003-012>014-020>022-031-032-NEZ013-014-SDZ071-160200-
NORTHWEST IOWA

CITY           SKY/WX    TMP DP  RH WIND       PRES   REMARKS
CHEROKEE       MOCLDY    29  21  72 SE6       30.19S WCI  23
DENISON        MIX PCPN  32  28  86 SE5       30.16F WCI  27
ESTHERVILLE    CLOUDY    25  21  85 S8        30.20R WCI  16
LE MARS        CLOUDY    30  16  55 SE7       30.19S WCI  23
ORANGE CITY    CLOUDY    28  16  59 CALM      30.18R
SHELDON        CLOUDY    28  19  69 CALM      30.17R
SIOUX CITY     CLOUDY    32  21  64 E5        30.18S WCI  27
SPENCER        CLOUDY    24  19  81 SE7       30.20S WCI  16
STORM LAKE     CLOUDY    27  21  80 SE7       30.19S WCI  19
$$

ABBREVIATIONS USED IN REMARKS
   TC - TEMPERATURE IN CELSIUS
  WCI - WIND CHILL INDEX
   HX - HEAT INDEX
  VSB - VISIBILITY




USA.gov is the U.S. government's official web portal to all federal, state and local government web resources and services.